Regional Weather Roundup
Issued by NWS

Home | Current Version | Previous Version | Graphics & Text | Print | Product List | Glossary On
Versions: 1 2 3 4 5 6 7 8 9 10 11 12 13 14 15 16 17 18 19 20 21 22 23 24 25 26 27 28 29 30 31 32 33 34 35 36 37 38 39 40 41 42 43 44 45 46 47 48 49 50
273
ASUS43 KTOP 250608
RWRKS

WEATHER ROUNDUP FOR KANSAS
NATIONAL WEATHER SERVICE GOODLAND KS
100 AM CDT WED APR 25 2018

NOTE:  "FAIR" INDICATES FEW OR NO CLOUDS BELOW 12,000 FEET WITH NO
SIGNIFICANT WEATHER AND/OR OBSTRUCTIONS TO VISIBILITY.

KSZ001>006-013>018-027>032-041>047-250700-
NORTHWEST KANSAS

CITY           SKY/WX    TMP DP  RH WIND       PRES   REMARKS
GOODLAND       CLOUDY    35  31  85 N15       30.38R WCI  25
6HR MIN TEMP:  35; 6HR MAX TEMP:  40; 6HR PCP: TRACE;

HAYS           LGT RAIN  42  38  85 N16G22    30.31S
HILL CITY      CLOUDY    41  37  86 N20G29    30.33F
6HR MIN TEMP:  41; 6HR MAX TEMP:  46;

RUSSELL        LGT RAIN  42  41  96 NW22G30   30.28S
6HR MIN TEMP:  42; 6HR MAX TEMP:  47; 6HR PCP:  0.05;

$$

KSZ061>065-074>080-084>089-250700-
SOUTHWEST KANSAS

CITY           SKY/WX    TMP DP  RH WIND       PRES   REMARKS
DODGE CITY     LGT RAIN  39  36  89 N23G32    30.32S FOG     WCI  28
6HR MIN TEMP:  39; 6HR MAX TEMP:  46; 6HR PCP:  0.27;

ELKHART        MIX PCPN  40  37  91 N14G21    30.40R WCI  32
GARDEN CITY    LGT RAIN  37  35  92 N16       30.36S WCI  28
6HR MIN TEMP:  36; 6HR MAX TEMP:  45; 6HR PCP:  0.18;

GREAT BEND     LGT RAIN  42  40  92 NW15      30.29S
LIBERAL        LGT RAIN  37  35  92 N21       30.36F WCI  26
PRATT          RAIN      42  40  92 N22G31    30.27S
6HR MIN TEMP:  42; 6HR MAX TEMP:  50; 6HR PCP:  0.15;

$$

KSZ066>073-081>083-090>101-250700-
SOUTHEAST KANSAS

CITY           SKY/WX    TMP DP  RH WIND       PRES   REMARKS
CHANUTE        CLOUDY    56  48  74 NW9       30.12F
6HR MIN TEMP:  56; 6HR MAX TEMP:  75;

COFFEYVILLE    CLOUDY    59  47  64 N9        30.11S
6HR MIN TEMP:  59; 6HR MAX TEMP:  76;

HUTCHINSON     RAIN      46  44  93 NW18G26   30.22F FOG
6HR MIN TEMP:  46; 6HR MAX TEMP:  55; 6HR PCP:  0.11;

MEDICINE LODGE   N/A     45  43  93 NW16G31   30.26R
NEWTON         LGT RAIN  46  44  93 N20       30.21R
PARSONS        CLOUDY    57  48  72 N9        30.12F
6HR MIN TEMP:  57; 6HR MAX TEMP:  76;

WICHITA INTL   LGT RAIN  49  46  90 N14       30.20S
6HR MIN TEMP:  49; 6HR MAX TEMP:  62; 6HR PCP: TRACE;

WICHITA JABRA  LGT RAIN  48  45  89 N17       30.20S
6HR MIN TEMP:  48; 6HR MAX TEMP:  58; 6HR PCP: TRACE;

WINFIELD       CLOUDY    51  47  86 N20       30.17F
6HR MIN TEMP:  51; 6HR MAX TEMP:  64;

$$

KSZ007>012-019>026-033>040-048>060-102>105-250700-
NORTHEAST KANSAS

CITY           SKY/WX    TMP DP  RH WIND       PRES   REMARKS
CONCORDIA      CLOUDY    46  45  96 N15       30.23F
6HR MIN TEMP:  46; 6HR MAX TEMP:  50; 6HR PCP: TRACE;

EMPORIA        CLOUDY    52  47  83 NW15      30.16S
6HR MIN TEMP:  52; 6HR MAX TEMP:  62;

LAWRENCE       CLOUDY    57  47  69 NW7       30.12F
6HR MIN TEMP:  57; 6HR MAX TEMP:  67;

MANHATTAN      LGT RAIN  50  46  86 NW5       30.22R
6HR MIN TEMP:  50; 6HR MAX TEMP:  58; 6HR PCP: TRACE;

MARYSVILLE     RAIN      50  48  93 NW10      30.21S
OLATHE IND     CLOUDY    58  46  64 N12       30.12F
6HR MIN TEMP:  58; 6HR MAX TEMP:  71; 6HR PCP: TRACE;

OLATHE EXE     CLOUDY    59  46  62 N12       30.11S
6HR MIN TEMP:  59; 6HR MAX TEMP:  72; 6HR PCP: TRACE;

SALINA         LGT RAIN  48  47  96 NW14      30.23F
6HR MIN TEMP:  48; 6HR MAX TEMP:  54; 6HR PCP:  0.11;

TOPEKA BILLARD CLOUDY    55  49  80 W10       30.15S
6HR MIN TEMP:  55; 6HR MAX TEMP:  64;

TOPEKA FORBES  CLOUDY    56  49  77 NW14      30.14S
6HR MIN TEMP:  55; 6HR MAX TEMP:  64;

$$




USA.gov is the U.S. government's official web portal to all federal, state and local government web resources and services.